DW2217 Weather Reports


time (UTC)temp
C
wind
direction
speed
KPH
gust
KPH
rain 1hr
cm
rain 24hr
cm
rain mn
cm
humidity
%
barometer
mb
20260505230810 18 283 14.5 19.3 0.00 0.00 0.00 69 1005.3
20260505230307 18 263 11.3 19.3 0.00 0.00 0.00 67 1005.4
20260505225803 18 290 11.3 19.3 0.00 0.00 0.00 69 1005.5
20260505225301 18 264 16.1 27.4 0.00 0.00 0.00 69 1005.4
20260505224755 18 280 17.7 22.5 0.00 0.00 0.00 70 1005.7
20260505224254 19 271 11.3 19.3 0.00 0.00 0.00 70 1005.5
20260505223751 19 280 20.9 22.5 0.00 0.00 0.00 66 1005.4
20260505223247 20 290 24.1 30.6 0.00 0.00 0.00 61 1005.3
20260505222743 18 263 24.1 43.5 0.00 0.00 0.00 58 1005.3
20260505222240 18 109 1.6 8.0 0.00 0.00 0.00 57 1003.1
20260505221737 18 107 6.4 8.0 0.00 0.00 0.00 57 1002.8
20260505221233 18 111 4.8 8.0 0.00 0.00 0.00 57 1003.1
20260505220730 18 100 8.0 8.0 0.00 0.00 0.00 57 1003.2
20260505220228 19 119 4.8 8.0 0.00 0.00 0.00 56 1002.8
20260505215726 20 115 8.0 11.3 0.00 0.00 0.00 55 1003.0
20260505215223 20 105 6.4 8.0 0.00 0.00 0.00 55 1002.9
20260505214721 19 113 4.8 8.0 0.00 0.00 0.00 55 1002.9
20260505214218 18 116 4.8 8.0 0.00 0.00 0.00 57 1002.7
20260505213715 18 117 8.0 8.0 0.00 0.00 0.00 57 1002.7
20260505213213 20 121 3.2 8.0 0.00 0.00 0.00 54 1002.6
20260505212708 20 116 6.4 8.0 0.00 0.00 0.00 53 1002.3
20260505212206 21 109 4.8 8.0 0.00 0.00 0.00 52 1002.6
20260505211703 21 112 4.8 8.0 0.00 0.00 0.00 51 1002.4
20260505211200 21 110 4.8 8.0 0.00 0.00 0.00 51 1002.2
20260505210656 21 116 4.8 8.0 0.00 0.00 0.00 52 1002.4
20260505210153 21 113 4.8 8.0 0.00 0.00 0.00 52 1002.3
20260505205651 20 102 8.0 8.0 0.00 0.00 0.00 53 1002.3
20260505205149 20 109 4.8 4.8 0.00 0.00 0.00 53 1002.4
20260505204645 20 102 6.4 8.0 0.00 0.00 0.00 53 1002.3
20260505204143 20 122 3.2 8.0 0.00 0.00 0.00 52 1002.3
20260505203640 20 103 4.8 8.0 0.00 0.00 0.00 52 1002.2
20260505203137 21 112 8.0 8.0 0.00 0.00 0.00 51 1002.3
20260505202632 21 130 4.8 8.0 0.00 0.00 0.00 50 1002.2
20260505202128 21 118 4.8 8.0 0.00 0.00 0.00 51 1002.3
20260505201625 20 105 8.0 8.0 0.00 0.00 0.00 51 1002.4
20260505201123 20 138 6.4 8.0 0.00 0.00 0.00 51 1002.5
20260505200621 20 120 4.8 4.8 0.00 0.00 0.00 51 1002.3
20260505200118 21 111 4.8 8.0 0.00 0.00 0.00 50 1002.4
20260505195614 21 136 3.2 11.3 0.00 0.00 0.00 50 1002.4
20260505195111 21 98 9.7 11.3 0.00 0.00 0.00 49 1002.5
20260505194608 21 117 4.8 8.0 0.00 0.00 0.00 50 1002.7
20260505194104 22 110 6.4 8.0 0.00 0.00 0.00 47 1002.7
20260505193601 22 113 6.4 8.0 0.00 0.00 0.00 48 1002.6
20260505193058 22 107 6.4 8.0 0.00 0.00 0.00 48 1002.7
20260505192557 21 103 4.8 8.0 0.00 0.00 0.00 48 1002.9
20260505192054 21 110 4.8 11.3 0.00 0.00 0.00 49 1003.0
20260505191552 22 110 8.0 14.5 0.00 0.00 0.00 47 1002.9
20260505191050 28 114 4.8 8.0 0.00 0.00 0.00 36 1002.8
20260505190544 28 127 3.2 14.5 0.00 0.00 0.00 33 1002.7
20260505190040 27 183 6.4 11.3 0.00 0.00 0.00 34 1003.0
20260505185537 28 121 6.4 11.3 0.00 0.00 0.00 33 1002.8
20260505185034 27 179 8.0 16.1 0.00 0.00 0.00 35 1003.2
20260505184531 27 194 8.0 14.5 0.00 0.00 0.00 34 1003.3
20260505184027 27 211 9.7 14.5 0.00 0.00 0.00 35 1003.4
20260505183524 26 199 14.5 16.1 0.00 0.00 0.00 35 1003.5
20260505183022 26 231 8.0 22.5 0.00 0.00 0.00 36 1003.5
20260505182518 26 230 17.7 24.1 0.00 0.00 0.00 34 1003.6
20260505182015 26 222 17.7 22.5 0.00 0.00 0.00 36 1003.7
20260505181511 27 206 12.9 16.1 0.00 0.00 0.00 35 1003.7
20260505181009 27 223 11.3 16.1 0.00 0.00 0.00 36 1003.6
20260505180504 27 210 16.1 22.5 0.00 0.00 0.00 35 1003.7
20260505180003 26 221 14.5 19.3 0.00 0.00 0.00 36 1003.7
20260505175457 27 210 8.0 19.3 0.00 0.00 0.00 36 1004.0
20260505174954 27 140 6.4 11.3 0.00 0.00 0.00 35 1003.9
20260505174451 27 230 16.1 16.1 0.00 0.00 0.00 35 1004.1
20260505173947 26 243 14.5 16.1 0.00 0.00 0.00 35 1004.0
20260505173444 26 170 12.9 16.1 0.00 0.00 0.00 36 1004.2
20260505172941 26 204 12.9 22.5 0.00 0.00 0.00 36 1004.1
20260505172439 26 208 11.3 16.1 0.00 0.00 0.00 37 1004.1
20260505171938 26 233 9.7 19.3 0.00 0.00 0.00 37 1004.1
20260505171436 26 232 11.3 16.1 0.00 0.00 0.00 37 1004.2
20260505170932 26 232 12.9 19.3 0.00 0.00 0.00 38 1004.5
20260505170429 26 268 16.1 22.5 0.00 0.00 0.00 38 1004.6
20260505165924 26 237 16.1 16.1 0.00 0.00 0.00 38 1004.8
20260505165421 25 237 8.0 14.5 0.00 0.00 0.00 40 1004.6
20260505164916 26 201 3.2 11.3 0.00 0.00 0.00 38 1004.8
20260505164413 25 241 11.3 16.1 0.00 0.00 0.00 39 1004.8
20260505163911 25 191 4.8 14.5 0.00 0.00 0.00 40 1005.2
20260505163410 24 217 8.0 11.3 0.00 0.00 0.00 41 1005.5
20260505162908 25 268 11.3 19.3 0.00 0.00 0.00 40 1005.4
20260505162403 25 242 16.1 27.4 0.00 0.00 0.00 41 1005.5
20260505161901 25 243 17.7 24.1 0.00 0.00 0.00 41 1005.8
20260505161357 25 201 9.7 14.5 0.00 0.00 0.00 41 1005.7
20260505160855 25 204 6.4 11.3 0.00 0.00 0.00 41 1005.8
20260505160353 24 260 6.4 11.3 0.00 0.00 0.00 41 1005.9
20260505153325 22 185 4.8 11.3 0.00 0.00 0.00 45 1006.4
20260505152822 21 236 16.1 22.5 0.00 0.00 0.00 45 1006.3
20260505152319 21 239 11.3 14.5 0.00 0.00 0.00 45 1006.6
20260505151814 21 179 1.6 4.8 0.00 0.00 0.00 46 1006.5
20260505151311 21 146 0.0 3.2 0.00 0.00 0.00 46 1006.8
20260505150808 21 223 3.2 4.8 0.00 0.00 0.00 45 1006.7
20260505150305 20 114 4.8 8.0 0.00 0.00 0.00 47 1006.7
20260505140229 17 176 4.8 4.8 0.00 0.00 0.00 54 1006.5
20260505130153 15 176 1.6 4.8 0.00 0.00 0.00 60 1007.4
20260505124643 13 176 1.6 3.2 0.00 0.00 0.00 65 1007.5
20260505124139 13 177 0.0 3.2 0.00 0.00 0.00 65 1007.5
20260505123635 13 175 4.8 4.8 0.00 0.00 0.00 64 1007.4
20260505123132 13 173 3.2 4.8 0.00 0.00 0.00 64 1007.0
20260505122629 13 172 3.2 3.2 0.00 0.00 0.00 64 1006.9
20260505122126 13 172 1.6 3.2 0.00 0.00 0.00 64 1006.9
20260505121623 13 172 4.8 4.8 0.00 0.00 0.00 64 1006.9
20260505121119 12 172 4.8 4.8 0.00 0.00 0.00 66 1006.8
20260505120616 12 172 3.2 3.2 0.00 0.00 0.00 67 1006.8
20260505120112 12 172 3.2 4.8 0.00 0.00 0.00 68 1007.0
20260505115606 12 172 3.2 4.8 0.00 0.00 0.00 67 1007.2
20260505115104 12 172 0.0 3.2 0.00 0.00 0.00 68 1007.5
20260505114601 12 172 1.6 3.2 0.00 0.00 0.00 68 1007.0
20260505114057 12 172 3.2 4.8 0.00 0.00 0.00 68 1007.3
20260505113553 12 172 0.0 3.2 0.00 0.00 0.00 68 1007.3
20260505113050 12 172 3.2 3.2 0.00 0.00 0.00 67 1007.2
20260505112546 11 172 0.0 3.2 0.00 0.00 0.00 69 1007.3
20260505112044 11 172 3.2 3.2 0.00 0.00 0.00 68 1007.2
20260505111538 11 172 3.2 4.8 0.00 0.00 0.00 70 1007.0
20260505111034 11 172 4.8 4.8 0.00 0.00 0.00 70 1007.1
20260505110525 11 173 3.2 3.2 0.00 0.00 0.00 70 1007.3
20260505101957 10 173 0.0 3.2 0.00 0.00 0.00 76 1007.2
20260505101450 10 173 0.0 0.0 0.00 0.00 0.00 75 1007.1
20260505100946 10 173 0.0 0.0 0.00 0.00 0.00 75 1007.2
20260505100443 10 173 0.0 3.2 0.00 0.00 0.00 74 1007.1
20260505095938 10 173 0.0 0.0 0.00 0.00 0.00 74 1007.1
20260505095430 10 170 3.2 4.8 0.00 0.00 0.00 74 1007.2
20260505094926 10 168 3.2 3.2 0.00 0.00 0.00 74 1007.2
20260505094424 10 167 0.0 3.2 0.00 0.00 0.00 75 1007.1
20260505093920 9 160 1.6 3.2 0.00 0.00 0.00 76 1007.2
20260505093417 9 160 3.2 3.2 0.00 0.00 0.00 75 1007.0
20260505092914 9 158 3.2 3.2 0.00 0.00 0.00 75 1007.2
20260505092412 9 158 0.0 0.0 0.00 0.00 0.00 75 1007.2
20260505091909 9 158 1.6 3.2 0.00 0.00 0.00 75 1007.1
20260505091406 9 158 0.0 3.2 0.00 0.00 0.00 75 1007.1
20260505090904 9 158 0.0 3.2 0.00 0.00 0.00 74 1007.2
20260505090402 10 158 3.2 3.2 0.00 0.00 0.00 74 1007.1
20260505085859 10 158 0.0 4.8 0.00 0.00 0.00 73 1007.2
20260505085357 10 143 1.6 3.2 0.00 0.00 0.00 73 1007.2
20260505084855 10 89 0.0 3.2 0.00 0.00 0.00 72 1007.4
20260505084353 10 89 3.2 3.2 0.00 0.00 0.00 72 1007.3
20260505083850 10 88 0.0 3.2 0.00 0.00 0.00 71 1007.6
20260505083348 10 89 3.2 3.2 0.00 0.00 0.00 70 1007.4
20260505082844 10 88 1.6 3.2 0.00 0.00 0.00 70 1007.5
20260505082340 10 88 3.2 3.2 0.00 0.00 0.00 69 1007.5
20260505081837 10 88 0.0 0.0 0.00 0.00 0.00 69 1007.6
20260505081333 10 88 0.0 0.0 0.00 0.00 0.00 70 1007.6
20260505080830 10 88 0.0 0.0 0.00 0.00 0.00 70 1007.6
20260505080326 11 143 0.0 0.0 0.00 0.00 0.00 68 1007.6
20260505075822 11 140 3.2 3.2 0.00 0.00 0.00 67 1007.7
20260505075319 11 204 3.2 4.8 0.00 0.00 0.00 66 1007.7
20260505074816 11 99 0.0 3.2 0.00 0.00 0.00 67 1007.6
20260505074313 10 98 0.0 3.2 0.00 0.00 0.00 68 1007.7
20260505073811 11 85 1.6 3.2 0.00 0.00 0.00 69 1007.7
20260505073309 11 85 1.6 3.2 0.00 0.00 0.00 68 1007.6
20260505072805 11 86 0.0 3.2 0.00 0.00 0.00 67 1007.5
20260505072301 11 86 0.0 3.2 0.00 0.00 0.00 66 1007.5
20260505071757 11 86 0.0 3.2 0.00 0.00 0.00 66 1007.5
20260505071254 11 130 0.0 3.2 0.00 0.00 0.00 66 1007.5
20260505070752 11 123 3.2 3.2 0.00 0.00 0.00 65 1007.5
20260505070248 11 141 0.0 3.2 0.00 0.00 0.00 64 1007.5
20260505065743 11 95 0.0 3.2 0.00 0.00 0.00 66 1007.6
20260505065241 11 118 0.0 3.2 0.00 0.00 0.00 65 1007.5
20260505064738 11 118 0.0 3.2 0.00 0.00 0.00 65 1007.7
20260505064235 12 157 0.0 3.2 0.00 0.00 0.00 63 1007.7
20260505063732 12 197 3.2 4.8 0.00 0.00 0.00 61 1007.7
20260505063228 13 206 4.8 4.8 0.00 0.00 0.00 58 1007.5
20260505062725 13 225 4.8 8.0 0.00 0.00 0.00 57 1007.5
20260505062223 13 236 8.0 8.0 0.00 0.00 0.00 56 1007.4
20260505061720 14 233 6.4 8.0 0.00 0.00 0.00 56 1007.6
20260505061218 13 246 8.0 11.3 0.00 0.00 0.00 56 1007.4
20260505060715 13 206 1.6 4.8 0.00 0.00 0.00 56 1007.6
20260505060211 13 214 3.2 4.8 0.00 0.00 0.00 57 1007.4
20260505055707 13 229 3.2 4.8 0.00 0.00 0.00 58 1007.7
20260505055204 13 209 4.8 8.0 0.00 0.00 0.00 57 1007.6
20260505054701 13 206 4.8 8.0 0.00 0.00 0.00 56 1007.7
20260505054159 14 233 9.7 11.3 0.00 0.00 0.00 55 1007.5
20260505053656 15 225 6.4 11.3 0.00 0.00 0.00 53 1007.7
20260505053153 15 241 12.9 14.5 0.00 0.00 0.00 53 1007.4
20260505052650 15 213 4.8 11.3 0.00 0.00 0.00 55 1007.5
20260505052147 15 228 11.3 11.3 0.00 0.00 0.00 53 1007.4
20260505051644 15 247 12.9 14.5 0.00 0.00 0.00 53 1007.4
20260505051142 15 248 8.0 11.3 0.00 0.00 0.00 53 1007.3
20260505050639 15 229 8.0 14.5 0.00 0.00 0.00 53 1007.5
20260505050138 15 244 12.9 19.3 0.00 0.00 0.00 52 1007.5
20260505041607 15 257 11.3 14.5 0.00 0.00 0.00 50 1007.2
20260505041105 15 234 11.3 16.1 0.00 0.00 0.00 50 1006.9
20260505040602 15 241 14.5 19.3 0.00 0.00 0.00 50 1007.0
20260505040059 15 230 8.0 11.3 0.00 0.00 0.00 51 1006.9
20260505035555 14 195 4.8 8.0 0.00 0.00 0.00 50 1006.8
20260505035052 14 194 6.4 8.0 0.00 0.00 0.00 50 1006.8
20260505034548 14 178 3.2 4.8 0.00 0.00 0.00 50 1006.6
20260505034045 15 166 3.2 3.2 0.00 0.00 0.00 50 1006.7
20260505033542 15 195 8.0 11.3 0.00 0.00 0.00 50 1006.5
20260505033040 16 157 3.2 14.5 0.00 0.00 0.00 45 1006.7
20260505032538 16 207 6.4 11.3 0.00 0.00 0.00 44 1006.5
20260505032034 16 208 6.4 8.0 0.00 0.00 0.00 43 1006.6
20260505031531 16 207 6.4 11.3 0.00 0.00 0.00 43 1006.5
20260505031027 16 209 4.8 11.3 0.00 0.00 0.00 43 1006.4
20260505030525 16 205 8.0 8.0 0.00 0.00 0.00 43 1006.5
20260505030021 16 219 8.0 11.3 0.00 0.00 0.00 45 1006.5
20260505025517 16 232 8.0 11.3 0.00 0.00 0.00 46 1006.5
20260505025016 16 207 6.4 11.3 0.00 0.00 0.00 44 1006.6
20260505024512 16 217 6.4 8.0 0.00 0.00 0.00 45 1006.7
20260505024009 16 218 8.0 8.0 0.00 0.00 0.00 47 1006.7
20260505023506 16 213 6.4 8.0 0.00 0.00 0.00 45 1006.6
20260505023004 16 211 4.8 4.8 0.00 0.00 0.00 44 1006.8
20260505022502 16 212 6.4 8.0 0.00 0.00 0.00 44 1006.6
20260505021958 16 210 4.8 8.0 0.00 0.00 0.00 43 1006.7
20260505021455 15 207 4.8 8.0 0.00 0.00 0.00 45 1006.6
20260505020950 15 198 4.8 8.0 0.00 0.00 0.00 45 1006.6
20260505020446 16 233 0.0 0.0 0.00 0.00 0.00 50 1006.5
20260505015943 16 234 4.8 8.0 0.00 0.00 0.00 43 1006.6
20260505015440 17 233 4.8 11.3 0.00 0.00 0.00 41 1006.4
20260505014937 17 219 8.0 8.0 0.00 0.00 0.00 42 1006.5
20260505014434 16 213 6.4 8.0 0.00 0.00 0.00 42 1006.3
20260505013931 16 207 4.8 4.8 0.00 0.00 0.00 42 1006.4
20260505013428 17 207 4.8 4.8 0.00 0.00 0.00 42 1006.3
20260505012926 17 207 4.8 8.0 0.00 0.00 0.00 41 1006.3
20260505012424 17 214 8.0 8.0 0.00 0.00 0.00 41 1006.2
20260505011920 17 233 4.8 8.0 0.00 0.00 0.00 42 1006.1
20260505011416 17 234 4.8 8.0 0.00 0.00 0.00 41 1006.2
20260505010913 17 212 4.8 8.0 0.00 0.00 0.00 41 1006.1
20260505010409 17 233 8.0 11.3 0.00 0.00 0.00 40 1006.2
20260505005905 17 218 8.0 8.0 0.00 0.00 0.00 41 1005.9
20260505005402 17 217 6.4 8.0 0.00 0.00 0.00 42 1005.9
20260505004859 17 217 8.0 11.3 0.00 0.00 0.00 40 1006.0
20260505004356 17 217 8.0 8.0 0.00 0.00 0.00 41 1006.0
20260505003853 17 216 6.4 8.0 0.00 0.00 0.00 41 1005.7
20260505003350 17 215 6.4 8.0 0.00 0.00 0.00 41 1005.4
20260505002846 17 213 6.4 8.0 0.00 0.00 0.00 41 1005.6
20260505002343 17 212 8.0 8.0 0.00 0.00 0.00 41 1005.3
20260505001842 17 209 6.4 8.0 0.00 0.00 0.00 41 1005.3
20260505001338 17 208 3.2 4.8 0.00 0.00 0.00 40 1005.3
20260505000835 17 208 3.2 4.8 0.00 0.00 0.00 40 1005.3
20260505000333 17 208 4.8 4.8 0.00 0.00 0.00 40 1005.2
20260504235829 17 209 6.4 8.0 0.00 0.00 0.00 39 1005.3
20260504235327 17 204 3.2 4.8 0.00 0.00 0.00 40 1005.1
20260504234823 18 204 6.4 8.0 0.00 0.00 0.00 39 1005.0
20260504234321 18 203 0.0 3.2 0.00 0.00 0.00 40 1005.0
20260504233817 18 204 4.8 4.8 0.00 0.00 0.00 39 1004.9
20260504233313 18 204 4.8 8.0 0.00 0.00 0.00 38 1005.0
20260504232810 18 226 4.8 4.8 0.00 0.00 0.00 38 1004.9
20260504232307 18 227 0.0 4.8 0.00 0.00 0.00 39 1004.8
20260504231804 18 228 6.4 8.0 0.00 0.00 0.00 38 1004.9
20260504231300 18 233 4.8 8.0 0.00 0.00 0.00 37 1004.7